User: anonymous   Login
Location: Fort Wayne
(41.1310°N, 85.1290°W)
Time: 12:41:33
(UTC-05:00)
Language:

Cosmos 2227 Rocket - Orbit

View from above orbital plane
View from above orbital plane
View from above satellite
View from above satellite

Ground track
Ground track

The orbit data is extracted from the following two-line orbital elements,

1 22285U 92093B   15030.84121923 -.00000186  00000-0 -71582-4 0  5092
2 22285 071.0192 233.8011 0004609 341.2432 018.8521 14.14948504139702
Epoch (UTC): 30 January 2015 20:11:21
Eccentricity: 0.0004609
inclination: 71.0192°
perigee height: 839 km
apogee height: 846 km
right ascension of ascending node: 233.8011°
argument of perigee: 341.2432°
revolutions per day: 14.14948504
mean anomaly at epoch: 18.8521°
orbit number at epoch: 13970

The dashed part of the orbit path shows where the satellite is in the earth's shadow,  

DLR